Torna al catalogo

FENGYUN 1C DEB

AttivoSSO
NORAD 38829·DEBRIS·🇨🇳 China

Lanciato May 10, 1999 da Taiyuan Satellite Launch Center

Loading…

Prossimi Passaggi (prossime 24 ore)

TLE

AggiornatoSource: Space-Track

Epoca: Sep 14, 2026, 06:39 UTC

1 38829U 99025EVV 26257.27766229  .00000519  00000-0  31802-3 0  9990
2 38829  98.7389 270.2768 0039998 331.7987  28.1018 14.09708479680142

Traccia FENGYUN 1C DEB in tempo reale con AllMySat

Download on the App Store